Location: Gajan
(43.0218°N, 1.1244°E)
Time: 02:02:05
(UTC+00:00)

Cosmos 2227 Rocket - Pass Details

Date: 22 April 2021
Orbit: 840 x 843 km, 71.0° (Epoch: 15 May)

Event Time Altitude Azimuth Distance (km) Brightness Sun altitude
Rises 20:32:23 0° 203° (SSW) 3,386 5.2 -17.9°
Reaches altitude 10° 20:34:49 10° 204° (SSW) 2,455 4.5 -18.3°
Maximum altitude 20:40:27 88° 291° (WNW) 849 2.2 -19.1°
Drops below altitude 10° 20:46:09 10° 24° (NNE) 2,469 4.8 -19.9°
Sets 20:48:36 0° 25° (NNE) 3,407 5.6 -20.2°
